Location: 10033 Water Well
(34.0865°N, 106.8959°W)
Time: 22:47:42
(UTC+00:00)

Cosmos 1821 Rocket - Pass Details

Date: 13 January 2026
Orbit: 943 x 1004 km, 82.9° (Epoch: 10 February)

Event Time Altitude Azimuth Distance (km) Brightness Sun altitude
Rises 02:02:19 0° 350° (N) 3,668 7.0 -21.1°
Reaches altitude 10° 02:04:51 10° 347° (NNW) 2,709 6.3 -21.6°
Maximum altitude 02:10:58 65° 267° (W) 1,046 4.3 -22.8°
Drops below altitude 10° 02:16:57 10° 187° (S) 2,660 6.5 -24.0°
Sets 02:19:26 0° 184° (S) 3,597 7.2 -24.5°
